{"data":{"norad_id":41911,"epoch":"2026-09-20T03:33:03.793248Z","epoch_age_seconds":56199,"freshness":"FRESH","line1":"1 41911U 17001A   26263.14796057 -.00000011  00000+0  00000+0 0  9994","line2":"2 41911   1.0708  83.8408 0001607 149.5714 245.4640  1.00272420 35674","mean_motion":1.0027242,"eccentricity":0.0001607,"inclination_deg":1.0708,"raan_deg":83.8408,"arg_perigee_deg":149.5714,"mean_anomaly_deg":245.464,"bstar":0,"rev_number":3567,"period_min":1436.0878095891,"perigee_km":35779.641104759,"apogee_km":35793.192792398,"semimajor_km":42164.553948579,"source":"CELESTRAK","updated_at":"2026-09-20T09:00:35.250651Z"}}